Regional Weather Roundup
Issued by NWS

Home | Current Version | Previous Version | Text Only | Print | Product List | Glossary Off
Versions: 1 2 3 4 5 6 7 8 9 10 11 12 13 14 15 16 17 18 19 20 21 22 23 24 25 26 27 28 29 30 31 32 33 34 35 36 37 38 39 40 41 42 43 44 45 46 47 48 49 50

000
ASUS43 KDMX 191801
RWRIA

WEATHER ROUNDUP FOR IOWA
NATIONAL WEATHER SERVICE DES MOINES IA
1200 PM CST SUN NOV 19 2017

NOTE: "FAIR" INDICATES FEW OR NO CLOUDS BELOW 12,000 FEET WITH NO
SIGNIFICANT WEATHER AND/OR OBSTRUCTIONS TO VISIBILITY.

* - THESE STATIONS ARE NOT NWS STATIONS...THUS NOT UNDER NWS
QUALITY CONTROL.  THEY ALSO DO NOT REPORT WEATHER SUCH
AS PRECIPITATION OR FOG.

IAZ001>003-012>014-020>022-031>034-043>046-191900-
   NORTHWEST IOWA

CITY           SKY/WX    TMP DP  RH WIND       PRES   REMARKS
CARROLL *      SUNNY     45  23  42 SW18G26   30.10F
DENISON *      SUNNY     45  25  45 SW9G16    30.11F
LE MARS *      SUNNY     45  28  53 S10       30.05F
ORANGE CITY *  SUNNY     45  28  53 SW13      30.04F
SHELDON *      SUNNY     45  27  49 SW10      30.02F
SIOUX CITY     SUNNY     46  30  53 S7        30.08F
6HR MIN TEMP:  17; 6HR MAX TEMP:  46;

SPENCER        SUNNY     44  25  47 SW14      30.04F
6HR MIN TEMP:  16; 6HR MAX TEMP:  44;

STORM LAKE *   SUNNY     43  27  52 SW14G21   30.06F
$$

IAZ055>058-069>071-079>083-090>094-191900-
   SOUTHWEST IOWA

CITY           SKY/WX    TMP DP  RH WIND       PRES   REMARKS
ATLANTIC *     SUNNY     43  27  52 S14       30.14F
AUDUBON *      SUNNY     43  25  49 S10G16    30.13F
CLARINDA *     SUNNY     45  25  45 SW13G18     N/A
COUNCIL BLFS * SUNNY     43  32  65 S10       30.13F
CRESTON *      SUNNY     43  23  45 SW14      30.17F
HARLAN  *      SUNNY     43  27  52 S15       30.16F
LAMONI         SUNNY     42  22  44 SW10      30.18F
6HR MIN TEMP:  22; 6HR MAX TEMP:  42;

RED OAK *      SUNNY     45  28  53 S14G20    30.17F
SHENANDOAH *   SUNNY     46  27  46 SW13      30.18F
$$

IAZ047>049-059>061-072>074-084-191900-
   CENTRAL IOWA

CITY           SKY/WX    TMP DP  RH WIND       PRES   REMARKS
AMES           CLOUDY    39  23  52 SW14      30.13F WCI  31
6HR MIN TEMP:  18; 6HR MAX TEMP:  39;

ANKENY *       SUNNY     41  19  42 SW9       30.16F
BOONE *        SUNNY     39  23  52 SW13      30.11F WCI  32
CHARITON *     SUNNY     39  19  45 SW6G14    30.17F WCI  35
DES MOINES     MOSUNNY   41  20  43 SW9       30.15F
6HR MIN TEMP:  22; 6HR MAX TEMP:  41;

GRINNELL*      SUNNY     36  21  54 W10       30.15F WCI  29
KNOXVILLE *    SUNNY     37  18  44 VRB6G13   30.16F WCI  33
MARSHALLTOWN   SUNNY     37  21  52 SW12      30.11F WCI  29
6HR MIN TEMP:  18; 6HR MAX TEMP:  37;

NEWTON *       SUNNY     37  19  48 W9        30.14F WCI  31
PELLA *        SUNNY     37  20  50 W7        30.18F WCI  32
$$

IAZ004>006-015-016-023>025-035-036-191900-
   NORTH CENTRAL IOWA

CITY           SKY/WX    TMP DP  RH WIND       PRES   REMARKS
ALGONA *       SUNNY     39  25  56 SW17      30.06F WCI  30
CLARION *      SUNNY     39  23  52 SW14      30.08F WCI  31
ESTHERVILLE    SUNNY     41  25  53 SW17      30.03F
6HR MIN TEMP:  16; 6HR MAX TEMP:  41;

FORT DODGE *   SUNNY     40  23  50 SW18      30.09F WCI  31
MASON CITY     MOSUNNY   35  21  56 SW12      30.07F WCI  27
6HR MIN TEMP:  14; 6HR MAX TEMP:  35;

FOREST CITY *    N/A     36  23  60 SW13      30.06F WCI  27
WEBSTER CITY * SUNNY     39  21  48 SW15      30.08F WCI  31
IOWA FALLS *     N/A     37  22  54 SW14      30.12F WCI  29
$$

IAZ007>011-017>019-026>030-037>042-050>054-066-191900-
   NORTHEAST IOWA

CITY           SKY/WX    TMP DP  RH WIND       PRES   REMARKS
CEDAR RAPIDS   PTSUNNY   34  19  54 W12       30.14F WCI  25
6HR MIN TEMP:  18; 6HR MAX TEMP:  34;

CHARLES CITY * MOSUNNY   32  18  55 SW8       30.08F WCI  25
DECORAH *      PTSUNNY   28  14  54 W8        30.05F WCI  20
DUBUQUE        MOSUNNY   30  14  51 W12       30.10F WCI  20
6HR MIN TEMP:  19; 6HR MAX TEMP:  30;

MONTICELLO *   CLOUDY    30  14  51 W10G17    30.12F WCI  21
OELWEIN *      CLOUDY    28  18  64 W10       30.10F WCI  19
WATERLOO       MOSUNNY   33  17  51 SW9       30.10F WCI  25
6HR MIN TEMP:  18; 6HR MAX TEMP:  33;

$$

IAZ064-065-067-068-078-191900-
   EAST CENTRAL IOWA

CITY           SKY/WX    TMP DP  RH WIND       PRES   REMARKS
DAVENPORT      CLOUDY    30  13  49 W13       30.15F WCI  20
6HR MIN TEMP:  21; 6HR MAX TEMP:  30;

IOWA CITY      PTSUNNY   35  15  44 W8        30.18F WCI  29
6HR MIN TEMP:  23; 6HR MAX TEMP:  35;

MT. PLEASANT * MOSUNNY   34  14  45 W8        30.19F WCI  27
MUSCATINE *    MOSUNNY   34  14  44 NW9       30.18F WCI  26
QUAD CITIES    CLOUDY    32  13  45 W15       30.14F WCI  22
6HR MIN TEMP:  23; 6HR MAX TEMP:  32;

$$

IAZ062-063-075>077-085>089-095>099-191900-
   SOUTHEAST IOWA

CITY           SKY/WX    TMP DP  RH WIND       PRES   REMARKS
BURLINGTON     PTSUNNY   34  15  46 W10       30.19F WCI  26
6HR MIN TEMP:  23; 6HR MAX TEMP:  34;

FAIRFIELD *    SUNNY     34  18  51 W13       30.18F WCI  25
FORT MADISON * PTSUNNY   36  18  48 W9        30.20F WCI  29
KEOKUK *       PTSUNNY   36  14  41 W8        30.20F WCI  29
OTTUMWA        SUNNY     37  20  50 W10       30.18F WCI  30
6HR MIN TEMP:  22; 6HR MAX TEMP:  37;

WASHINGTON *   MOSUNNY   34  19  55 W14       30.19F WCI  24
$$

ABBREVIATIONS USED IN REMARKS
   TC - TEMPERATURES IN CELSIUS
  WCI - WIND CHILL INDEX
   HX - HEAT INDEX
  VSB - VISIBILITY
$$





USA.gov is the U.S. government's official web portal to all federal, state and local government web resources and services.